GW2454 Weather Reports


Display with metric or nautical units.
time (UTC)temp
F
wind
direction
speed
MPH
gust
MPH
rain 1hr
in
rain 24hr
in
rain mn
in
humidity
%
barometer
mb
20260505153325 77 213 4.0 5.0 0.00 0.00 0.00 84 1006.4
20260505152822 77 199 3.0 3.0 0.00 0.00 0.00 84 1006.4
20260505152319 77 210 3.0 5.0 0.00 0.00 0.00 84 1006.4
20260505151814 78 270 4.0 6.0 0.00 0.00 0.00 84 1006.5
20260505151311 77 223 3.0 3.0 0.00 0.00 0.00 84 1006.3
20260505150808 77 260 3.0 5.0 0.00 0.00 0.00 84 1006.3
20260505150305 77 232 2.0 2.0 0.00 0.00 0.00 84 1006.3
20260505140229 76 209 3.0 3.0 0.00 0.00 0.00 86 1005.9
20260505130153 74 223 3.0 3.0 0.00 0.00 0.00 88 1006.1
20260505124643 73 166 3.0 3.0 0.00 0.00 0.00 89 1005.6
20260505124139 73 158 2.0 2.0 0.00 0.00 0.00 89 1005.5
20260505123635 73 202 3.0 5.0 0.00 0.00 0.00 89 1005.6
20260505123132 73 224 2.0 2.0 0.00 0.00 0.00 89 1006.0
20260505122629 73 179 1.0 1.0 0.00 0.00 0.00 89 1006.0
20260505122126 73 190 1.0 1.0 0.00 0.00 0.00 89 1005.7
20260505121622 73 216 3.0 3.0 0.00 0.00 0.00 90 1006.1
20260505121119 73 204 2.0 2.0 0.00 0.00 0.00 90 1005.9
20260505120615 73 181 1.0 2.0 0.00 0.00 0.00 90 1005.8
20260505120112 72 194 1.0 1.0 0.00 0.00 0.00 90 1005.5
20260505115606 72 211 3.0 3.0 0.00 0.00 0.00 90 1005.5
20260505115104 72 203 6.0 7.0 0.00 0.00 0.00 90 1005.5
20260505114601 72 211 1.0 2.0 0.00 0.00 0.00 90 1005.3
20260505114057 72 204 3.0 3.0 0.00 0.00 0.00 90 1005.4
20260505113553 72 236 3.0 3.0 0.00 0.00 0.00 90 1005.8
20260505113050 72 216 2.0 3.0 0.00 0.00 0.00 91 1005.9
20260505112546 72 243 2.0 2.0 0.00 0.00 0.00 91 1005.5
20260505112044 71 237 2.0 2.0 0.00 0.00 0.00 91 1005.7
20260505111538 71 205 1.0 2.0 0.00 0.00 0.00 91 1005.6
20260505111035 71 220 1.0 1.0 0.00 0.00 0.00 91 1005.6
20260505110531 71 201 2.0 3.0 0.00 0.00 0.00 91 1005.4
20260505102003 72 152 1.0 2.0 0.00 0.00 0.00 90 1005.5
20260505101501 72 223 3.0 3.0 0.00 0.00 0.00 90 1005.5
20260505100958 72 237 2.0 2.0 0.00 0.00 0.00 89 1005.4
20260505100455 72 236 2.0 2.0 0.00 0.00 0.00 90 1005.5
20260505095951 72 166 3.0 3.0 0.00 0.00 0.00 89 1005.6
20260505095448 71 217 4.0 5.0 0.00 0.00 0.00 89 1005.6
20260505094944 71 232 2.0 2.0 0.00 0.00 0.00 90 1005.6
20260505094441 71 207 2.0 2.0 0.00 0.00 0.00 90 1005.7
20260505093937 71 209 1.0 2.0 0.00 0.00 0.00 90 1005.5
20260505093434 71 195 2.0 2.0 0.00 0.00 0.00 89 1005.8
20260505092931 71 185 1.0 1.0 0.00 0.00 0.00 89 1005.7
20260505092429 71 217 1.0 1.0 0.00 0.00 0.00 89 1005.8
20260505091926 71 225 1.0 1.0 0.00 0.00 0.00 89 1005.9
20260505091423 71 212 3.0 3.0 0.00 0.00 0.00 89 1005.7
20260505090921 71 216 2.0 2.0 0.00 0.00 0.00 89 1006.1
20260505090419 71 213 2.0 2.0 0.00 0.00 0.00 89 1006.1
20260505085916 71 225 1.0 1.0 0.00 0.00 0.00 89 1005.9
20260505085414 71 190 1.0 2.0 0.00 0.00 0.00 89 1006.0
20260505084912 71 221 2.0 2.0 0.00 0.00 0.00 89 1006.0
20260505084410 71 208 2.0 2.0 0.00 0.00 0.00 89 1005.6
20260505083908 71 185 1.0 2.0 0.00 0.00 0.00 88 1006.1
20260505083405 71 242 1.0 2.0 0.00 0.00 0.00 88 1005.8
20260505082901 71 204 1.0 1.0 0.00 0.00 0.00 88 1006.2
20260505082357 71 210 2.0 2.0 0.00 0.00 0.00 88 1006.4
20260505081854 71 207 2.0 2.0 0.00 0.00 0.00 87 1006.2
20260505081351 71 220 1.0 2.0 0.00 0.00 0.00 87 1006.1
20260505080848 71 231 2.0 2.0 0.00 0.00 0.00 87 1006.2
20260505080344 71 221 1.0 1.0 0.00 0.00 0.00 87 1006.3
20260505075839 71 207 1.0 2.0 0.00 0.00 0.00 87 1006.4
20260505075336 71 206 1.0 1.0 0.00 0.00 0.00 87 1006.3
20260505074833 71 200 2.0 2.0 0.00 0.00 0.00 87 1006.6
20260505074331 71 231 2.0 3.0 0.00 0.00 0.00 87 1006.4
20260505073828 71 183 1.0 1.0 0.00 0.00 0.00 86 1006.6
20260505073326 71 217 2.0 2.0 0.00 0.00 0.00 86 1006.4
20260505072822 71 197 2.0 2.0 0.00 0.00 0.00 86 1006.3
20260505072319 71 218 3.0 3.0 0.00 0.00 0.00 86 1006.6
20260505071815 71 172 2.0 2.0 0.00 0.00 0.00 86 1006.8
20260505071311 71 248 2.0 2.0 0.00 0.00 0.00 86 1006.6
20260505070810 71 216 3.0 3.0 0.00 0.00 0.00 86 1006.9
20260505070306 71 221 3.0 5.0 0.00 0.00 0.00 86 1006.8
20260505065801 71 219 2.0 3.0 0.00 0.00 0.00 85 1006.8
20260505065258 71 236 2.0 2.0 0.00 0.00 0.00 85 1007.0
20260505064755 71 228 2.0 2.0 0.00 0.00 0.00 85 1007.0
20260505064252 71 211 5.0 7.0 0.00 0.00 0.00 85 1007.1
20260505063749 71 233 2.0 2.0 0.00 0.00 0.00 85 1006.9
20260505063241 71 218 2.0 2.0 0.00 0.00 0.00 85 1007.2
20260505062737 71 228 3.0 3.0 0.00 0.00 0.00 85 1007.4
20260505062235 71 208 2.0 3.0 0.00 0.00 0.00 85 1007.2
20260505061731 71 186 3.0 5.0 0.00 0.00 0.00 85 1007.0
20260505061230 71 177 5.0 6.0 0.00 0.00 0.00 85 1007.4
20260505060726 71 200 3.0 3.0 0.00 0.00 0.00 84 1007.4
20260505060224 71 168 3.0 3.0 0.00 0.00 0.00 84 1007.3
20260505055718 71 216 3.0 3.0 0.00 0.00 0.00 84 1007.3
20260505055215 71 216 5.0 6.0 0.00 0.00 0.00 84 1007.2
20260505054713 71 160 4.0 6.0 0.00 0.00 0.00 84 1007.2
20260505054210 71 214 3.0 3.0 0.00 0.00 0.00 83 1007.2
20260505053709 72 172 2.0 2.0 0.00 0.00 0.00 83 1007.3
20260505053204 72 215 3.0 3.0 0.00 0.00 0.00 83 1007.5
20260505052701 72 194 4.0 5.0 0.00 0.00 0.00 83 1007.6
20260505052153 72 199 2.0 2.0 0.00 0.00 0.00 82 1007.8
20260505051650 72 219 3.0 3.0 0.00 0.00 0.00 82 1007.7
20260505051148 72 200 2.0 3.0 0.00 0.00 0.00 82 1007.7
20260505050645 72 212 2.0 2.0 0.00 0.00 0.00 82 1007.8
20260505050144 72 227 3.0 3.0 0.00 0.00 0.00 81 1007.7
20260505041613 73 186 5.0 6.0 0.00 0.00 0.00 79 1007.5
20260505041110 73 237 4.0 5.0 0.00 0.00 0.00 79 1007.7
20260505040608 73 223 3.0 3.0 0.00 0.00 0.00 79 1007.5
20260505040105 73 162 3.0 5.0 0.00 0.00 0.00 79 1008.2
20260505035601 73 195 3.0 3.0 0.00 0.00 0.00 79 1007.8
20260505035057 73 156 4.0 5.0 0.00 0.00 0.00 79 1007.9
20260505034554 73 225 3.0 3.0 0.00 0.00 0.00 79 1007.8
20260505034051 73 264 6.0 7.0 0.00 0.00 0.00 78 1007.8
20260505033548 73 164 2.0 2.0 0.00 0.00 0.00 78 1008.0
20260505033046 73 199 3.0 5.0 0.00 0.00 0.00 78 1008.2
20260505032544 73 210 4.0 5.0 0.00 0.00 0.00 78 1008.4
20260505032040 74 202 5.0 7.0 0.00 0.00 0.00 78 1008.2
20260505031537 74 185 4.0 6.0 0.00 0.00 0.00 78 1008.4
20260505031033 74 172 2.0 2.0 0.00 0.00 0.00 78 1008.2
20260505030531 74 188 3.0 5.0 0.00 0.00 0.00 77 1008.1
20260505030026 74 212 3.0 3.0 0.00 0.00 0.00 77 1008.0
20260505025522 74 195 6.0 8.0 0.00 0.00 0.00 77 1007.8
20260505025022 74 198 4.0 6.0 0.00 0.00 0.00 77 1007.7
20260505024518 74 211 5.0 6.0 0.00 0.00 0.00 77 1007.7
20260505024015 74 255 7.0 9.0 0.00 0.00 0.00 76 1007.6
20260505023512 75 217 5.0 6.0 0.00 0.00 0.00 76 1007.7
20260505023010 75 201 3.0 5.0 0.00 0.00 0.00 75 1007.7
20260505022507 75 220 6.0 8.0 0.00 0.00 0.00 75 1007.7
20260505022004 75 203 3.0 3.0 0.00 0.00 0.00 75 1007.6
20260505021501 75 196 3.0 3.0 0.00 0.00 0.00 75 1007.7
20260505020956 75 193 4.0 5.0 0.00 0.00 0.00 74 1007.7
20260505020452 75 215 4.0 5.0 0.00 0.00 0.00 74 1007.6
20260505015949 75 222 4.0 5.0 0.00 0.00 0.00 73 1007.6
20260505015446 76 206 4.0 5.0 0.00 0.00 0.00 73 1007.5
20260505014943 76 253 5.0 7.0 0.00 0.00 0.00 73 1007.3
20260505014440 76 221 6.0 7.0 0.00 0.00 0.00 73 1007.5
20260505013937 76 232 3.0 3.0 0.00 0.00 0.00 73 1007.5
20260505013434 76 231 7.0 9.0 0.00 0.00 0.00 73 1007.3
20260505012932 76 204 4.0 5.0 0.00 0.00 0.00 73 1007.4
20260505012430 76 212 3.0 5.0 0.00 0.00 0.00 72 1007.3
20260505011926 75 233 4.0 6.0 0.00 0.00 0.00 73 1007.1
20260505011422 75 219 3.0 3.0 0.00 0.00 0.00 73 1007.2
20260505010919 76 232 3.0 3.0 0.00 0.00 0.00 72 1007.2
20260505010415 76 202 3.0 3.0 0.00 0.00 0.00 72 1007.3
20260505005911 76 229 3.0 5.0 0.00 0.00 0.00 71 1007.2
20260505005408 76 198 3.0 3.0 0.00 0.00 0.00 71 1007.2
20260505004905 76 199 3.0 3.0 0.00 0.00 0.00 70 1007.0
20260505004401 77 200 5.0 6.0 0.00 0.00 0.00 70 1007.3
20260505003859 77 222 3.0 5.0 0.00 0.00 0.00 70 1007.1
20260505003356 77 221 4.0 5.0 0.00 0.00 0.00 69 1007.4
20260505002852 77 214 2.0 2.0 0.00 0.00 0.00 69 1007.1
20260505002349 77 213 3.0 3.0 0.00 0.00 0.00 68 1007.4
20260505001847 78 241 6.0 8.0 0.00 0.00 0.00 68 1007.3
20260505001344 78 229 3.0 3.0 0.00 0.00 0.00 68 1007.3
20260505000841 78 224 7.0 9.0 0.00 0.00 0.00 67 1007.2
20260505000339 78 235 5.0 8.0 0.00 0.00 0.00 67 1007.1
20260504235835 78 246 2.0 2.0 0.00 0.00 0.00 67 1007.2
20260504235333 78 182 2.0 2.0 0.00 0.00 0.00 67 1007.4
20260504234829 78 216 3.0 3.0 0.00 0.00 0.00 67 1007.4
20260504234327 79 186 6.0 9.0 0.00 0.00 0.00 66 1007.4
20260504233823 79 221 4.0 5.0 0.00 0.00 0.00 66 1007.4
20260504233319 79 225 3.0 5.0 0.00 0.00 0.00 66 1007.2
20260504232816 79 151 4.0 6.0 0.00 0.00 0.00 65 1007.3
20260504232313 79 218 5.0 6.0 0.00 0.00 0.00 65 1007.1
20260504231810 79 210 7.0 8.0 0.00 0.00 0.00 64 1007.4
20260504231306 80 228 3.0 3.0 0.00 0.00 0.00 64 1007.5
20260504230802 80 231 3.0 3.0 0.00 0.00 0.00 64 1007.8
20260504230300 80 234 7.0 9.0 0.00 0.00 0.00 63 1007.7
20260504225759 80 151 4.0 6.0 0.00 0.00 0.00 62 1007.7
20260504225255 80 220 4.0 6.0 0.00 0.00 0.00 63 1007.7
20260504224752 80 210 4.0 5.0 0.00 0.00 0.00 62 1007.7
20260504224249 80 203 4.0 6.0 0.00 0.00 0.00 61 1007.8
20260504223746 80 231 5.0 5.0 0.00 0.00 0.00 61 1007.8
20260504223241 80 201 5.0 7.0 0.00 0.00 0.00 61 1007.8
20260504222738 81 222 6.0 7.0 0.00 0.00 0.00 60 1008.0
20260504222235 81 156 5.0 6.0 0.00 0.00 0.00 60 1007.8
20260504221733 81 246 5.0 6.0 0.00 0.00 0.00 60 1007.9
20260504221229 81 217 3.0 6.0 0.00 0.00 0.00 59 1008.1
20260504220725 81 220 3.0 3.0 0.00 0.00 0.00 59 1008.1
20260504220218 81 235 6.0 7.0 0.00 0.00 0.00 58 1008.2
20260504215714 81 182 3.0 5.0 0.00 0.00 0.00 59 1007.8
20260504215212 81 239 4.0 5.0 0.00 0.00 0.00 59 1008.1
20260504214707 82 205 4.0 5.0 0.00 0.00 0.00 58 1008.2
20260504214204 82 225 6.0 7.0 0.00 0.00 0.00 57 1008.5
20260504213701 82 195 2.0 2.0 0.00 0.00 0.00 57 1008.4
20260504213157 82 228 4.0 5.0 0.00 0.00 0.00 57 1008.4
20260504212654 82 244 3.0 3.0 0.00 0.00 0.00 57 1008.6
20260504212150 82 207 3.0 3.0 0.00 0.00 0.00 57 1008.6
20260504211648 83 223 3.0 3.0 0.00 0.00 0.00 57 1008.6
20260504211144 84 228 3.0 3.0 0.00 0.00 0.00 55 1008.7
20260504210642 84 205 4.0 5.0 0.00 0.00 0.00 54 1009.0
20260504210138 83 226 2.0 3.0 0.00 0.00 0.00 55 1008.8
20260504205636 82 214 4.0 5.0 0.00 0.00 0.00 56 1009.0
20260504205133 83 213 4.0 6.0 0.00 0.00 0.00 57 1008.9
20260504204631 83 261 5.0 7.0 0.00 0.00 0.00 53 1009.2
20260504204130 83 233 5.0 5.0 0.00 0.00 0.00 53 1009.5
20260504203628 83 268 4.0 6.0 0.00 0.00 0.00 55 1009.2
20260504203125 84 217 5.0 6.0 0.00 0.00 0.00 54 1009.5
20260504202620 83 237 3.0 5.0 0.00 0.00 0.00 56 1009.5
20260504202117 83 213 4.0 7.0 0.00 0.00 0.00 55 1009.6
20260504201614 82 242 2.0 2.0 0.00 0.00 0.00 56 1009.8
20260504201112 82 90 1.0 1.0 0.00 0.00 0.00 55 1009.6
20260504200608 83 248 3.0 5.0 0.00 0.00 0.00 54 1009.9
20260504200105 83 232 3.0 5.0 0.00 0.00 0.00 55 1010.0
20260504195601 83 235 2.0 3.0 0.00 0.00 0.00 55 1010.1
20260504195057 82 239 5.0 8.0 0.00 0.00 0.00 55 1010.3
20260504194554 82 268 5.0 7.0 0.00 0.00 0.00 55 1010.2
20260504194049 82 356 2.0 3.0 0.00 0.00 0.00 55 1010.3
20260504193546 81 198 4.0 6.0 0.00 0.00 0.00 56 1010.4
20260504193045 82 245 5.0 6.0 0.00 0.00 0.00 56 1010.3
20260504192543 83 201 4.0 5.0 0.00 0.00 0.00 57 1010.4
20260504192041 82 226 4.0 5.0 0.00 0.00 0.00 56 1010.5
20260504191538 81 216 3.0 3.0 0.00 0.00 0.00 57 1010.5
20260504191034 81 260 5.0 6.0 0.00 0.00 0.00 57 1011.1
20260504190531 80 216 5.0 6.0 0.00 0.00 0.00 56 1010.8
20260504190027 81 227 3.0 5.0 0.00 0.00 0.00 55 1010.8
20260504185524 82 274 5.0 6.0 0.00 0.00 0.00 54 1011.0
20260504185020 82 228 3.0 3.0 0.00 0.00 0.00 56 1010.8
20260504184516 81 179 4.0 5.0 0.00 0.00 0.00 59 1011.1
20260504184012 81 236 5.0 6.0 0.00 0.00 0.00 56 1011.0
20260504183509 80 186 1.0 2.0 0.00 0.00 0.00 56 1011.1
20260504183007 81 222 4.0 5.0 0.00 0.00 0.00 55 1011.4
20260504182503 81 214 5.0 7.0 0.00 0.00 0.00 56 1011.3
20260504182001 80 239 4.0 5.0 0.00 0.00 0.00 56 1011.3
20260504181458 80 246 7.0 8.0 0.00 0.00 0.00 58 1011.5
20260504180956 79 241 4.0 7.0 0.00 0.00 0.00 59 1011.3
20260504180455 80 220 3.0 5.0 0.00 0.00 0.00 59 1011.6
20260504175953 80 211 4.0 5.0 0.00 0.00 0.00 57 1011.5
20260504175450 80 242 4.0 6.0 0.00 0.00 0.00 57 1011.5
20260504174947 79 227 2.0 2.0 0.00 0.00 0.00 58 1011.5
20260504174445 80 234 4.0 6.0 0.00 0.00 0.00 57 1011.7
20260504173942 80 235 5.0 9.0 0.00 0.00 0.00 58 1011.8
20260504173438 78 222 3.0 3.0 0.00 0.00 0.00 58 1012.0
20260504172936 79 251 4.0 5.0 0.00 0.00 0.00 59 1011.9
20260504172431 79 254 3.0 3.0 0.00 0.00 0.00 59 1012.0
20260504171928 78 173 2.0 2.0 0.00 0.00 0.00 58 1011.9
20260504171426 79 223 5.0 6.0 0.00 0.00 0.00 58 1012.2
20260504170923 78 253 5.0 8.0 0.00 0.00 0.00 59 1012.1
20260504170419 78 218 3.0 5.0 0.00 0.00 0.00 59 1012.1
20260504160338 76 223 3.0 3.0 0.00 0.00 0.00 62 1013.3